EW6767 Weather Reports


Display with metric or nautical units.
time (UTC)temp
F
wind
direction
speed
MPH
gust
MPH
rain 1hr
in
rain 24hr
in
rain mn
in
humidity
%
barometer
mb
20260504231554 73 51 0.0 4.0 0.00 0.00 0.00 54 1021.8
20260504230037 73 287 1.0 5.0 0.00 0.00 0.00 52 1021.9
20260504224538 73 248 0.0 8.0 0.00 0.00 0.00 53 1022.1
20260504223034 72 174 0.0 7.0 0.00 0.00 0.00 55 1022.6
20260504221535 72 266 0.0 2.0 0.00 0.00 0.00 56 1022.5
20260504220035 71 215 0.0 4.0 0.00 0.00 0.00 58 1022.5
20260504214530 70 280 2.0 7.0 0.00 0.00 0.00 57 1022.7
20260504213028 72 260 2.0 9.0 0.00 0.00 0.00 55 1023.1
20260504211528 71 217 2.0 7.0 0.00 0.00 0.00 57 1023.0
20260504210027 70 227 2.0 6.0 0.00 0.00 0.00 60 1023.4
20260504204525 69 242 1.0 4.0 0.00 0.00 0.00 63 1023.0
20260504203030 69 233 2.0 7.0 0.00 0.00 0.00 62 1024.2
20260504201522 69 226 0.0 11.0 0.00 0.00 0.00 64 1024.4
20260504200024 69 203 1.0 10.0 0.00 0.00 0.00 65 1024.2
20260504194533 69 56 0.0 6.0 0.00 0.00 0.00 64 1024.1
20260504193021 68 73 1.0 5.0 0.00 0.00 0.00 64 1024.6
20260504191520 68 240 0.0 8.0 0.00 0.00 0.00 64 1025.0
20260504190020 69 278 3.0 12.0 0.00 0.00 0.00 63 1025.3
20260504184520 71 244 2.0 10.0 0.00 0.00 0.00 58 1025.1
20260504183018 71 235 4.0 10.0 0.00 0.00 0.00 57 1025.1
20260504181518 72 225 4.0 10.0 0.00 0.00 0.00 56 1024.8
20260504180019 72 232 2.0 6.0 0.00 0.00 0.00 58 1024.5
20260504174514 71 297 3.0 9.0 0.00 0.00 0.00 58 1024.3
20260504173017 70 49 3.0 10.0 0.00 0.00 0.00 57 1024.6
20260504171510 71 4 3.0 10.0 0.00 0.00 0.00 57 1024.9
20260504081548 47 261 0.0 1.0 0.00 0.00 0.00 79 1027.9
20260504050018 51 236 0.0 2.0 0.00 0.00 0.00 67 1029.8
20260504044515 52 245 0.0 2.0 0.00 0.00 0.00 66 1029.9
20260504043013 53 276 0.0 3.0 0.00 0.00 0.00 66 1030.0
20260504041512 53 263 0.0 1.0 0.00 0.00 0.00 67 1030.1
20260504040010 52 294 0.0 1.0 0.00 0.00 0.00 70 1030.2
20260504034508 52 296 0.0 1.0 0.00 0.00 0.00 70 1030.3
20260504033007 51 300 0.0 1.0 0.00 0.00 0.00 75 1030.4
20260504031507 50 44 0.0 0.0 0.00 0.00 0.00 80 1030.4
20260504030006 50 44 0.0 0.0 0.00 0.00 0.00 80 1030.7
20260504024506 51 44 0.0 0.0 0.00 0.00 0.00 79 1030.7
20260504023006 51 44 0.0 0.0 0.00 0.00 0.00 80 1030.9
20260504021505 51 44 0.0 0.0 0.00 0.00 0.00 80 1030.9
20260504020005 51 44 0.0 0.0 0.00 0.00 0.00 80 1031.0
20260504014510 51 44 0.0 0.0 0.00 0.00 0.00 78 1030.8
20260504013006 51 44 0.0 0.0 0.00 0.00 0.00 77 1030.7
20260504011504 52 44 0.0 0.0 0.00 0.00 0.00 76 1030.7
20260504010002 52 44 0.0 0.0 0.00 0.00 0.00 75 1030.9
20260504004501 52 44 0.0 0.0 0.00 0.00 0.00 73 1030.9
20260504003002 53 44 0.0 1.0 0.00 0.00 0.00 70 1030.7
20260504001502 53 53 0.0 1.0 0.00 0.00 0.00 67 1030.6
20260504000000 54 39 0.0 3.0 0.00 0.00 0.00 65 1030.7
20260503234701 54 51 0.0 1.0 0.00 0.00 0.00 65 1030.5
20260503233058 54 33 0.0 1.0 0.00 0.00 0.00 63 1030.6